Simultaneous Nadir Overpasses (SNOs) Predictions

Prediction of SNOs between GOES-16 and NOAA-20 Satellite Orbit:

Table of predicted SNOs for the next 14.0 days since TLE Epoch: 8/30/2024
Index Date Time (GOES-16) GOES-16 Lat,Lon NOAA-20 Lat,Lon Distance(km) Time Diff (sec)
1 08/31/2024 18:15:57 -0.05, -75.21 0.50, -72.72 282.72 80
2 09/02/2024 06:35:02 0.05, -75.21 0.69, -77.99 317.16 80
3 09/03/2024 06:16:16 0.05, -75.22 -0.36, -73.46 200.64 80
4 09/04/2024 18:38:11 -0.04, -75.24 -0.80, -78.76 400.74 80
5 09/05/2024 18:22:04 -0.04, -75.25 0.20, -74.22 117.61 80
6 09/07/2024 06:43:50 0.04, -75.26 0.98, -79.49 480.80 80
7 09/08/2024 06:22:23 0.04, -75.28 -0.03, -74.95 37.66 80
8 09/10/2024 18:25:30 -0.04, -75.32 -0.15, -75.70 44.53 80
9 09/11/2024 18:09:23 -0.03, -75.34 0.87, -71.17 474.18 80
10 09/13/2024 06:31:09 0.02, -75.35 0.29, -76.43 123.99 80
